Location: Unspecified
(0.0000°N, 0.0000°E)
Time: 21:33:30
(UTC+00:00)

Vela 2A - Pass Details

Date: 30 November 2021
Orbit: 18140 x 188451 km, 32.5° (Epoch: 20 January)

Event Time Altitude Azimuth Distance (km) Brightness Sun altitude
Rises 13:08:05 0° 94° (E) 74,338 ? 60.9°
Reaches altitude 10° 14:09:05 10° 97° (E) 65,744 ? 49.5°
Maximum altitude 16:49:33 26° 112° (ESE) 42,518 ? 13.7°
Drops below altitude 10° 18:38:12 10° 123° (ESE) 29,130 ? -11.4°
Sets 19:05:18 0° 123° (ESE) 27,182 ? -17.7°
